GFSNW_prec_prec_222.txt.gz
QPF
0.12 0.08 0.11 0.18 0.17 0.17 0.46 0.91 0.60 0.21 0.05 0.37 0.22 0.02 0.00 0.00 0.00 0.00 0.00 0.00 0.00 0.00 0.00 0.00 0.00 0.00 0.00 0.00 0.00 0.00 0.00 0.00 0.00 0.00 0.00 0.00 0.00 0.00 0.00 0.00 0.00 0.00 0.00 0.00
0.09 0.10 0.04 0.05 0.15 0.21 0.51 0.82 0.81 0.61 0.24 0.42 0.15 0.01 0.00 0.00 0.00 0.00 0.00 0.00 0.00 0.00 0.00 0.00 0.00 0.00 0.00 0.00 0.00 0.00 0.00 0.00 0.00 0.00 0.00 0.00 0.00 0.00 0.00 0.00 0.00 0.00 0.00 0.00
0.01 0.03 0.05 0.04 0.07 0.11 0.31 0.71 0.70 0.88 0.90 0.34 0.14 0.01 0.00 0.00 0.00 0.00 0.00 0.00 0.00 0.00 0.00 0.00 0.00 0.00 0.00 0.00 0.00 0.00 0.00 0.00 0.00 0.00 0.00 0.00 0.00 0.00 0.00 0.00 0.00 0.00 0.00 0.00
0.00 0.00 0.01 0.02 0.04 0.11 0.33 0.62 0.63 0.49 0.55 0.31 0.04 0.00 0.00 0.00 0.00 0.00 0.00 0.00 0.00 0.00 0.00 0.00 0.00 0.00 0.00 0.00 0.00 0.00 0.00 0.00 0.00 0.00 0.00 0.00 0.00 0.00 0.00 0.00 0.00 0.00 0.00 0.00
0.00 0.00 0.01 0.03 0.06 0.18 0.26 0.41 0.31 0.30 0.22 0.09 0.03 0.02 0.00 0.00 0.00 0.00 0.00 0.00 0.00 0.00 0.00 0.00 0.00 0.00 0.00 0.01 0.01 0.02 0.04 0.06 0.03 0.02 0.00 0.00 0.00 0.00 0.00 0.00 0.00 0.00 0.00 0.00
0.00 0.00 0.00 0.02 0.07 0.25 0.22 0.21 0.18 0.11 0.09 0.07 0.08 0.10 0.02 0.00 0.00 0.00 0.00 0.00 0.00 0.00 0.00 0.00 0.00 0.00 0.01 0.02 0.02 0.04 0.04 0.07 0.08 0.12 0.01 0.02 0.09 0.01 0.00 0.00 0.00 0.00 0.00 0.00
0.00 0.00 0.00 0.01 0.06 0.21 0.20 0.11 0.08 0.09 0.13 0.09 0.06 0.02 0.00 0.00 0.00 0.00 0.00 0.00 0.00 0.00 0.00 0.01 0.04 0.05 0.04 0.04 0.06 0.06 0.07 0.09 0.14 0.24 0.11 0.23 0.14 0.00 0.00 0.00 0.00 0.00 0.00 0.00
0.00 0.00 0.00 0.00 0.02 0.15 0.28 0.14 0.09 0.10 0.10 0.07 0.05 0.03 0.01 0.00 0.00 0.01 0.01 0.01 0.01 0.00 0.03 0.21 0.29 0.21 0.15 0.09 0.04 0.04 0.05 0.08 0.20 0.31 0.26 0.17 0.02 0.00 0.00 0.00 0.00 0.00 0.00 0.00
0.01 0.00 0.00 0.01 0.01 0.04 0.25 0.22 0.17 0.19 0.13 0.08 0.03 0.01 0.02 0.04 0.03 0.03 0.05 0.02 0.01 0.03 0.11 0.25 0.29 0.20 0.10 0.05 0.02 0.01 0.01 0.03 0.17 0.47 0.37 0.21 0.02 0.00 0.00 0.00 0.00 0.00 0.00 0.00
0.01 0.01 0.01 0.01 0.03 0.02 0.07 0.21 0.16 0.25 0.27 0.13 0.05 0.07 0.05 0.05 0.07 0.10 0.08 0.04 0.04 0.10 0.22 0.30 0.27 0.15 0.06 0.02 0.01 0.00 0.01 0.04 0.13 0.28 0.30 0.18 0.01 0.00 0.00 0.00 0.00 0.00 0.00 0.00
0.01 0.01 0.02 0.02 0.03 0.05 0.02 0.06 0.07 0.21 0.21 0.13 0.07 0.10 0.13 0.09 0.07 0.14 0.16 0.06 0.09 0.16 0.23 0.32 0.31 0.19 0.11 0.04 0.01 0.00 0.00 0.01 0.02 0.04 0.14 0.20 0.02 0.00 0.00 0.00 0.00 0.00 0.00 0.00
0.02 0.02 0.02 0.02 0.02 0.05 0.04 0.07 0.05 0.08 0.21 0.14 0.04 0.06 0.08 0.11 0.11 0.16 0.23 0.16 0.10 0.05 0.09 0.19 0.14 0.15 0.13 0.07 0.03 0.00 0.00 0.00 0.01 0.01 0.02 0.00 0.00 0.00 0.00 0.00 0.00 0.00 0.00 0.00
0.04 0.03 0.02 0.02 0.02 0.04 0.05 0.07 0.07 0.11 0.20 0.13 0.05 0.01 0.00 0.04 0.09 0.13 0.23 0.24 0.16 0.14 0.11 0.11 0.11 0.15 0.16 0.14 0.11 0.02 0.00 0.00 0.00 0.01 0.01 0.00 0.00 0.00 0.00 0.00 0.00 0.00 0.00 0.00
0.07 0.06 0.04 0.02 0.02 0.04 0.06 0.06 0.06 0.03 0.08 0.07 0.03 0.00 0.00 0.00 0.02 0.11 0.16 0.17 0.20 0.21 0.21 0.22 0.20 0.18 0.17 0.14 0.08 0.05 0.01 0.00 0.00 0.01 0.00 0.00 0.00 0.00 0.01 0.01 0.00 0.00 0.00 0.00
0.06 0.08 0.08 0.06 0.05 0.07 0.06 0.02 0.01 0.00 0.01 0.02 0.01 0.00 0.00 0.00 0.00 0.02 0.10 0.16 0.16 0.18 0.21 0.26 0.24 0.21 0.19 0.17 0.13 0.06 0.00 0.00 0.00 0.00 0.00 0.01 0.01 0.00 0.01 0.01 0.00 0.00 0.00 0.00
0.06 0.07 0.07 0.06 0.05 0.08 0.17 0.30 0.11 0.00 0.01 0.04 0.01 0.00 0.00 0.00 0.00 0.01 0.02 0.07 0.15 0.17 0.19 0.17 0.14 0.09 0.05 0.11 0.10 0.01 0.00 0.00 0.00 0.00 0.01 0.00 0.00 0.00 0.00 0.00 0.00 0.00 0.00 0.00
0.09 0.05 0.06 0.05 0.06 0.10 0.38 0.22 0.05 0.00 0.01 0.09 0.03 0.00 0.00 0.01 0.00 0.01 0.03 0.05 0.10 0.11 0.15 0.13 0.05 0.01 0.04 0.13 0.07 0.00 0.00 0.00 0.00 0.00 0.00 0.00 0.00 0.00 0.00 0.00 0.00 0.00 0.00 0.00
0.12 0.06 0.07 0.08 0.08 0.16 0.31 0.11 0.00 0.00 0.03 0.09 0.07 0.01 0.00 0.00 0.01 0.01 0.01 0.03 0.06 0.12 0.15 0.13 0.06 0.04 0.09 0.13 0.01 0.00 0.00 0.00 0.00 0.00 0.00 0.00 0.00 0.00 0.00 0.00 0.02 0.02 0.02 0.02
0.10 0.13 0.14 0.17 0.27 0.30 0.17 0.16 0.06 0.04 0.07 0.06 0.02 0.00 0.00 0.02 0.04 0.04 0.06 0.05 0.06 0.09 0.09 0.05 0.03 0.05 0.05 0.02 0.00 0.00 0.00 0.00 0.00 0.00 0.00 0.00 0.00 0.01 0.02 0.03 0.04 0.03 0.01 0.00
0.11 0.12 0.14 0.21 0.24 0.13 0.04 0.19 0.14 0.12 0.14 0.13 0.01 0.00 0.00 0.00 0.02 0.04 0.04 0.06 0.07 0.04 0.01 0.00 0.01 0.00 0.00 0.00 0.00 0.00 0.00 0.00 0.00 0.00 0.00 0.02 0.06 0.04 0.07 0.06 0.02 0.00 0.00 0.00
0.02 0.07 0.11 0.14 0.10 0.06 0.06 0.07 0.06 0.09 0.10 0.11 0.07 0.00 0.01 0.01 0.02 0.02 0.03 0.04 0.03 0.01 0.00 0.00 0.00 0.00 0.00 0.00 0.00 0.00 0.00 0.00 0.00 0.00 0.01 0.01 0.05 0.02 0.01 0.01 0.00 0.00 0.00 0.00
0.01 0.01 0.06 0.04 0.01 0.04 0.04 0.05 0.08 0.07 0.04 0.04 0.07 0.03 0.01 0.03 0.02 0.02 0.03 0.01 0.00 0.00 0.00 0.01 0.00 0.00 0.00 0.00 0.00 0.00 0.00 0.00 0.00 0.00 0.00 0.00 0.00 0.00 0.00 0.00 0.00 0.00 0.00 0.00
0.00 0.00 0.01 0.01 0.00 0.02 0.03 0.02 0.02 0.01 0.00 0.01 0.03 0.05 0.03 0.02 0.01 0.00 0.00 0.00 0.00 0.00 0.01 0.00 0.00 0.00 0.00 0.00 0.00 0.00 0.00 0.00 0.00 0.01 0.00 0.00 0.00 0.00 0.00 0.00 0.00 0.00 0.00 0.00
0.00 0.00 0.00 0.00 0.00 0.00 0.00 0.00 0.00 0.00 0.00 0.00 0.00 0.00 0.00 0.00 0.01 0.02 0.01 0.01 0.01 0.01 0.00 0.00 0.00 0.00 0.00 0.00 0.00 0.00 0.00 0.01 0.01 0.01 0.00 0.00 0.00 0.00 0.00 0.00 0.00 0.00 0.00 0.00
0.00 0.00 0.00 0.00 0.00 0.00 0.00 0.00 0.00 0.00 0.00 0.00 0.00 0.01 0.00 0.01 0.02 0.02 0.01 0.01 0.01 0.00 0.00 0.00 0.00 0.00 0.00 0.00 0.00 0.00 0.00 0.00 0.00 0.00 0.00 0.00 0.00 0.00 0.00 0.00 0.00 0.00 0.00 0.00
0.00 0.00 0.00 0.00 0.00 0.00 0.00 0.00 0.00 0.00 0.00 0.00 0.01 0.01 0.01 0.01 0.01 0.01 0.00 0.00 0.00 0.00 0.00 0.00 0.00 0.00 0.00 0.00 0.00 0.00 0.00 0.00 0.00 0.00 0.00 0.00 0.00 0.00 0.00 0.00 0.00 0.00 0.00 0.00
0.00 0.00 0.00 0.00 0.00 0.00 0.00 0.00 0.00 0.00 0.00 0.00 0.01 0.01 0.00 0.00 0.00 0.00 0.00 0.00 0.00 0.00 0.00 0.00 0.00 0.00 0.00 0.00 0.00 0.00 0.00 0.00 0.00 0.00 0.00 0.00 0.00 0.00 0.00 0.00 0.00 0.00 0.00 0.00

GFSNW_prec_prec_225.txt.gz
QPF
0.11 0.17 0.24 0.20 0.26 0.20 0.34 0.41 0.21 0.03 0.00 0.10 0.04 0.01 0.00 0.00 0.00 0.00 0.00 0.00 0.00 0.00 0.00 0.00 0.00 0.00 0.00 0.00 0.00 0.00 0.00 0.00 0.00 0.00 0.00 0.00 0.00 0.00 0.00 0.00 0.00 0.00 0.00 0.00
0.15 0.12 0.18 0.21 0.27 0.44 0.34 0.44 0.44 0.46 0.08 0.11 0.08 0.02 0.00 0.00 0.00 0.00 0.00 0.00 0.00 0.00 0.00 0.00 0.00 0.00 0.00 0.00 0.00 0.00 0.00 0.00 0.00 0.00 0.00 0.00 0.00 0.00 0.00 0.00 0.00 0.00 0.00 0.00
0.09 0.11 0.11 0.19 0.23 0.35 0.63 0.65 0.51 0.59 0.75 0.22 0.07 0.02 0.01 0.00 0.00 0.00 0.00 0.00 0.00 0.00 0.00 0.00 0.00 0.00 0.00 0.00 0.00 0.00 0.00 0.00 0.00 0.00 0.00 0.00 0.00 0.00 0.00 0.00 0.00 0.00 0.00 0.00
0.04 0.06 0.08 0.10 0.21 0.26 0.63 0.74 0.71 0.50 0.47 0.31 0.07 0.01 0.01 0.00 0.00 0.00 0.00 0.00 0.00 0.00 0.00 0.00 0.00 0.00 0.00 0.00 0.00 0.00 0.00 0.00 0.00 0.00 0.00 0.00 0.00 0.00 0.00 0.00 0.00 0.00 0.00 0.00
0.01 0.04 0.06 0.09 0.16 0.28 0.54 0.58 0.38 0.27 0.22 0.13 0.12 0.06 0.01 0.01 0.00 0.00 0.00 0.00 0.00 0.00 0.00 0.00 0.00 0.00 0.00 0.01 0.00 0.00 0.01 0.00 0.00 0.00 0.00 0.00 0.00 0.00 0.00 0.00 0.00 0.00 0.00 0.00
0.00 0.01 0.02 0.06 0.13 0.32 0.38 0.34 0.22 0.10 0.10 0.06 0.09 0.16 0.04 0.00 0.00 0.00 0.00 0.00 0.00 0.00 0.00 0.00 0.00 0.00 0.03 0.01 0.00 0.01 0.01 0.01 0.02 0.02 0.00 0.01 0.06 0.01 0.00 0.00 0.00 0.00 0.00 0.00
0.00 0.00 0.00 0.01 0.07 0.21 0.25 0.17 0.14 0.11 0.09 0.07 0.04 0.01 0.00 0.00 0.00 0.00 0.00 0.00 0.00 0.00 0.00 0.00 0.02 0.01 0.01 0.00 0.00 0.00 0.01 0.01 0.04 0.08 0.04 0.14 0.05 0.00 0.00 0.00 0.00 0.00 0.00 0.00
0.00 0.00 0.00 0.00 0.01 0.11 0.27 0.16 0.14 0.18 0.14 0.06 0.02 0.00 0.00 0.00 0.00 0.01 0.00 0.00 0.00 0.00 0.00 0.08 0.19 0.13 0.06 0.01 0.00 0.00 0.00 0.03 0.14 0.21 0.17 0.12 0.01 0.00 0.00 0.00 0.00 0.00 0.00 0.00
0.00 0.00 0.00 0.00 0.01 0.01 0.15 0.22 0.13 0.17 0.16 0.07 0.03 0.01 0.01 0.01 0.02 0.04 0.04 0.02 0.00 0.02 0.10 0.22 0.29 0.17 0.06 0.01 0.00 0.00 0.00 0.02 0.08 0.23 0.23 0.13 0.01 0.00 0.00 0.00 0.00 0.00 0.00 0.00
0.00 0.00 0.00 0.01 0.02 0.02 0.03 0.17 0.10 0.11 0.13 0.06 0.02 0.02 0.03 0.04 0.05 0.06 0.05 0.03 0.04 0.10 0.23 0.29 0.24 0.15 0.06 0.01 0.00 0.00 0.00 0.03 0.07 0.09 0.16 0.14 0.01 0.00 0.00 0.00 0.00 0.00 0.00 0.00
0.00 0.01 0.01 0.01 0.02 0.04 0.03 0.02 0.03 0.08 0.16 0.08 0.05 0.06 0.05 0.03 0.06 0.16 0.19 0.11 0.11 0.15 0.25 0.33 0.33 0.20 0.10 0.03 0.00 0.00 0.00 0.02 0.03 0.04 0.07 0.13 0.01 0.00 0.00 0.00 0.00 0.00 0.00 0.00
0.00 0.01 0.01 0.01 0.02 0.04 0.05 0.01 0.00 0.01 0.13 0.10 0.02 0.02 0.05 0.07 0.08 0.07 0.17 0.27 0.20 0.13 0.14 0.22 0.19 0.12 0.07 0.03 0.01 0.00 0.00 0.00 0.00 0.01 0.02 0.00 0.00 0.00 0.00 0.00 0.00 0.00 0.00 0.00
0.00 0.01 0.02 0.02 0.03 0.04 0.05 0.02 0.01 0.04 0.09 0.07 0.02 0.00 0.00 0.02 0.08 0.17 0.17 0.20 0.19 0.20 0.20 0.21 0.21 0.18 0.14 0.09 0.04 0.00 0.00 0.00 0.00 0.01 0.01 0.00 0.00 0.00 0.00 0.00 0.00 0.00 0.00 0.00
0.01 0.02 0.03 0.04 0.04 0.05 0.07 0.07 0.04 0.01 0.03 0.04 0.01 0.00 0.00 0.00 0.00 0.06 0.15 0.15 0.21 0.20 0.23 0.30 0.29 0.24 0.17 0.12 0.06 0.03 0.00 0.00 0.00 0.00 0.00 0.00 0.00 0.00 0.00 0.00 0.01 0.00 0.00 0.00
0.01 0.02 0.04 0.05 0.07 0.07 0.08 0.07 0.01 0.00 0.00 0.02 0.00 0.00 0.00 0.00 0.00 0.00 0.02 0.08 0.13 0.15 0.17 0.26 0.23 0.19 0.17 0.18 0.15 0.08 0.01 0.00 0.00 0.00 0.00 0.00 0.00 0.00 0.00 0.01 0.01 0.00 0.00 0.00
0.01 0.02 0.04 0.08 0.11 0.13 0.25 0.39 0.18 0.01 0.00 0.03 0.01 0.00 0.00 0.00 0.00 0.00 0.02 0.03 0.08 0.13 0.11 0.14 0.14 0.10 0.08 0.12 0.09 0.01 0.00 0.00 0.00 0.01 0.02 0.02 0.00 0.00 0.00 0.00 0.00 0.00 0.00 0.00
0.01 0.04 0.07 0.11 0.14 0.22 0.38 0.31 0.13 0.03 0.01 0.05 0.02 0.00 0.00 0.00 0.00 0.00 0.01 0.05 0.10 0.07 0.11 0.12 0.08 0.05 0.08 0.15 0.09 0.00 0.00 0.00 0.00 0.00 0.00 0.00 0.00 0.00 0.00 0.00 0.00 0.00 0.00 0.00
0.03 0.05 0.11 0.18 0.31 0.36 0.23 0.14 0.03 0.01 0.01 0.03 0.01 0.00 0.00 0.00 0.00 0.00 0.00 0.06 0.14 0.16 0.13 0.14 0.08 0.05 0.10 0.14 0.02 0.00 0.00 0.00 0.00 0.00 0.00 0.00 0.00 0.00 0.00 0.00 0.00 0.00 0.00 0.00
0.15 0.16 0.29 0.29 0.23 0.18 0.15 0.15 0.08 0.01 0.02 0.03 0.01 0.00 0.00 0.00 0.00 0.01 0.01 0.03 0.06 0.07 0.08 0.04 0.06 0.09 0.08 0.02 0.00 0.00 0.00 0.00 0.00 0.00 0.00 0.00 0.00 0.00 0.00 0.00 0.00 0.02 0.04 0.04
0.23 0.26 0.20 0.17 0.10 0.10 0.13 0.16 0.25 0.18 0.10 0.01 0.00 0.00 0.00 0.00 0.00 0.01 0.03 0.07 0.10 0.09 0.02 0.02 0.05 0.03 0.00 0.00 0.00 0.00 0.00 0.00 0.00 0.00 0.00 0.00 0.00 0.00 0.00 0.02 0.04 0.06 0.05 0.04
0.05 0.07 0.09 0.15 0.10 0.11 0.17 0.15 0.15 0.10 0.04 0.01 0.00 0.00 0.00 0.00 0.01 0.01 0.01 0.02 0.02 0.02 0.00 0.01 0.00 0.00 0.00 0.00 0.00 0.00 0.00 0.00 0.00 0.00 0.00 0.00 0.00 0.02 0.04 0.07 0.08 0.07 0.06 0.04
0.00 0.01 0.04 0.03 0.01 0.06 0.10 0.06 0.01 0.00 0.00 0.00 0.00 0.00 0.00 0.00 0.02 0.06 0.09 0.05 0.02 0.00 0.00 0.00 0.00 0.00 0.00 0.00 0.00 0.00 0.00 0.00 0.00 0.00 0.00 0.01 0.06 0.05 0.04 0.04 0.04 0.03 0.01 0.01
0.00 0.00 0.00 0.01 0.00 0.01 0.01 0.01 0.00 0.00 0.00 0.01 0.01 0.03 0.06 0.06 0.04 0.04 0.04 0.03 0.01 0.00 0.00 0.00 0.00 0.00 0.00 0.00 0.00 0.00 0.00 0.00 0.00 0.00 0.01 0.05 0.08 0.04 0.03 0.04 0.03 0.00 0.00 0.00
0.00 0.00 0.00 0.00 0.00 0.00 0.00 0.00 0.00 0.00 0.00 0.00 0.00 0.01 0.02 0.02 0.02 0.02 0.01 0.00 0.00 0.00 0.00 0.00 0.00 0.00 0.00 0.00 0.00 0.00 0.00 0.01 0.03 0.04 0.02 0.00 0.00 0.00 0.00 0.00 0.00 0.00 0.00 0.00
0.00 0.00 0.00 0.00 0.00 0.00 0.00 0.00 0.00 0.00 0.00 0.00 0.00 0.00 0.00 0.00 0.00 0.00 0.00 0.00 0.00 0.00 0.00 0.00 0.00 0.00 0.00 0.00 0.00 0.01 0.02 0.03 0.03 0.01 0.00 0.00 0.00 0.00 0.00 0.00 0.00 0.00 0.00 0.00
0.00 0.00 0.00 0.00 0.00 0.00 0.00 0.00 0.00 0.00 0.00 0.00 0.00 0.00 0.00 0.00 0.00 0.00 0.00 0.00 0.00 0.00 0.00 0.00 0.00 0.00 0.00 0.00 0.01 0.04 0.02 0.00 0.02 0.00 0.00 0.00 0.00 0.00 0.00 0.00 0.00 0.00 0.00 0.00
0.00 0.00 0.00 0.00 0.00 0.00 0.00 0.00 0.00 0.00 0.00 0.00 0.00 0.00 0.00 0.00 0.00 0.00 0.00 0.00 0.00 0.00 0.00 0.00 0.00 0.00 0.00 0.00 0.01 0.02 0.01 0.00 0.00 0.00 0.00 0.00 0.00 0.00 0.00 0.00 0.00 0.00 0.00 0.00

GFSNW_prec_prec_228.txt.gz
QPF
0.22 0.09 0.06 0.05 0.03 0.02 0.04 0.03 0.02 0.01 0.00 0.02 0.01 0.00 0.00 0.00 0.00 0.00 0.00 0.00 0.00 0.00 0.00 0.00 0.00 0.00 0.00 0.00 0.00 0.00 0.00 0.00 0.00 0.00 0.00 0.00 0.00 0.00 0.00 0.00 0.00 0.00 0.00 0.00
0.44 0.16 0.09 0.09 0.16 0.09 0.06 0.07 0.05 0.10 0.01 0.01 0.00 0.00 0.00 0.00 0.00 0.00 0.00 0.00 0.00 0.00 0.00 0.00 0.00 0.00 0.00 0.00 0.00 0.00 0.00 0.00 0.00 0.00 0.00 0.00 0.00 0.00 0.00 0.00 0.00 0.00 0.00 0.00
0.47 0.35 0.22 0.11 0.17 0.29 0.26 0.19 0.17 0.31 0.22 0.01 0.00 0.00 0.00 0.00 0.00 0.00 0.00 0.00 0.00 0.00 0.00 0.00 0.00 0.00 0.00 0.00 0.00 0.00 0.00 0.00 0.00 0.00 0.00 0.00 0.00 0.00 0.00 0.00 0.00 0.00 0.00 0.00
0.24 0.28 0.31 0.23 0.21 0.35 0.66 0.56 0.33 0.22 0.22 0.07 0.00 0.00 0.00 0.00 0.00 0.00 0.00 0.00 0.00 0.00 0.00 0.00 0.00 0.00 0.00 0.00 0.00 0.00 0.00 0.00 0.00 0.00 0.00 0.00 0.00 0.00 0.00 0.00 0.00 0.00 0.00 0.00
0.11 0.17 0.21 0.16 0.21 0.45 0.88 0.84 0.51 0.30 0.18 0.07 0.03 0.02 0.01 0.00 0.00 0.00 0.00 0.00 0.00 0.00 0.00 0.00 0.00 0.00 0.00 0.00 0.00 0.00 0.00 0.00 0.00 0.00 0.00 0.00 0.00 0.00 0.00 0.00 0.00 0.00 0.00 0.00
0.04 0.09 0.15 0.18 0.24 0.37 0.61 0.61 0.41 0.24 0.21 0.14 0.16 0.09 0.01 0.00 0.00 0.01 0.00 0.00 0.00 0.00 0.00 0.00 0.00 0.01 0.07 0.02 0.00 0.00 0.00 0.00 0.00 0.00 0.00 0.01 0.01 0.00 0.00 0.00 0.00 0.00 0.00 0.00
0.01 0.03 0.09 0.15 0.19 0.30 0.32 0.27 0.19 0.17 0.22 0.15 0.16 0.05 0.01 0.00 0.00 0.00 0.00 0.00 0.00 0.00 0.00 0.00 0.03 0.05 0.04 0.01 0.00 0.00 0.00 0.00 0.01 0.03 0.03 0.12 0.02 0.00 0.00 0.00 0.00 0.00 0.00 0.00
0.00 0.01 0.04 0.09 0.14 0.22 0.28 0.25 0.21 0.17 0.11 0.06 0.05 0.02 0.02 0.01 0.02 0.01 0.01 0.00 0.00 0.00 0.01 0.11 0.20 0.13 0.06 0.02 0.00 0.00 0.00 0.00 0.05 0.07 0.05 0.03 0.00 0.00 0.00 0.00 0.00 0.00 0.00 0.00
0.00 0.01 0.01 0.04 0.08 0.16 0.22 0.22 0.22 0.23 0.15 0.07 0.02 0.01 0.01 0.02 0.01 0.00 0.01 0.02 0.01 0.01 0.07 0.24 0.30 0.17 0.06 0.01 0.00 0.00 0.00 0.00 0.03 0.18 0.12 0.05 0.00 0.00 0.00 0.00 0.00 0.00 0.00 0.00
0.00 0.01 0.01 0.02 0.04 0.07 0.07 0.10 0.11 0.18 0.17 0.10 0.04 0.03 0.01 0.00 0.01 0.01 0.00 0.00 0.01 0.04 0.19 0.36 0.25 0.11 0.03 0.00 0.00 0.00 0.00 0.01 0.04 0.09 0.11 0.05 0.00 0.00 0.00 0.00 0.00 0.00 0.00 0.00
0.01 0.00 0.01 0.01 0.01 0.03 0.04 0.02 0.02 0.07 0.11 0.07 0.04 0.04 0.03 0.03 0.03 0.03 0.06 0.04 0.05 0.05 0.13 0.28 0.31 0.19 0.07 0.01 0.00 0.00 0.00 0.02 0.03 0.03 0.04 0.06 0.00 0.00 0.00 0.00 0.00 0.00 0.00 0.00
0.00 0.00 0.01 0.01 0.01 0.01 0.03 0.01 0.00 0.00 0.06 0.08 0.01 0.01 0.02 0.06 0.09 0.11 0.12 0.12 0.07 0.09 0.11 0.15 0.16 0.13 0.06 0.02 0.00 0.00 0.00 0.00 0.00 0.02 0.03 0.01 0.00 0.00 0.00 0.00 0.00 0.00 0.00 0.00
0.00 0.00 0.01 0.01 0.01 0.02 0.04 0.00 0.00 0.00 0.01 0.02 0.01 0.00 0.00 0.01 0.05 0.10 0.13 0.18 0.16 0.14 0.17 0.22 0.30 0.31 0.24 0.15 0.08 0.01 0.01 0.00 0.00 0.00 0.01 0.00 0.00 0.00 0.00 0.00 0.00 0.00 0.00 0.00
0.00 0.00 0.00 0.00 0.01 0.03 0.05 0.04 0.01 0.00 0.00 0.00 0.00 0.00 0.00 0.00 0.00 0.01 0.04 0.05 0.11 0.14 0.16 0.21 0.26 0.25 0.20 0.16 0.10 0.04 0.02 0.02 0.03 0.04 0.02 0.01 0.00 0.00 0.00 0.00 0.00 0.00 0.00 0.00
0.00 0.00 0.01 0.01 0.01 0.05 0.07 0.07 0.01 0.00 0.00 0.00 0.00 0.00 0.00 0.00 0.00 0.00 0.01 0.01 0.04 0.07 0.13 0.18 0.16 0.12 0.12 0.14 0.13 0.10 0.02 0.01 0.01 0.04 0.02 0.01 0.01 0.00 0.00 0.00 0.00 0.00 0.00 0.00
0.00 0.01 0.02 0.01 0.02 0.09 0.24 0.29 0.15 0.01 0.00 0.00 0.00 0.00 0.00 0.00 0.00 0.01 0.01 0.01 0.02 0.05 0.07 0.08 0.09 0.05 0.03 0.09 0.06 0.01 0.00 0.00 0.00 0.04 0.09 0.10 0.05 0.02 0.01 0.01 0.00 0.00 0.00 0.00
0.00 0.01 0.02 0.02 0.05 0.13 0.24 0.12 0.08 0.02 0.01 0.01 0.01 0.00 0.00 0.00 0.00 0.00 0.01 0.02 0.03 0.02 0.03 0.05 0.03 0.02 0.06 0.16 0.07 0.00 0.00 0.00 0.00 0.00 0.01 0.01 0.00 0.00 0.00 0.00 0.00 0.00 0.00 0.00
0.01 0.02 0.05 0.09 0.15 0.27 0.19 0.05 0.02 0.01 0.03 0.04 0.02 0.00 0.00 0.00 0.00 0.00 0.00 0.00 0.01 0.04 0.04 0.05 0.04 0.03 0.08 0.13 0.03 0.00 0.00 0.00 0.00 0.00 0.00 0.00 0.00 0.00 0.00 0.00 0.00 0.00 0.00 0.00
0.05 0.07 0.11 0.13 0.13 0.18 0.13 0.09 0.07 0.04 0.05 0.02 0.00 0.00 0.00 0.00 0.00 0.00 0.01 0.01 0.01 0.03 0.07 0.05 0.04 0.06 0.05 0.01 0.00 0.00 0.00 0.00 0.00 0.00 0.00 0.00 0.00 0.00 0.00 0.00 0.00 0.00 0.00 0.00
0.04 0.04 0.09 0.15 0.16 0.07 0.08 0.15 0.18 0.22 0.13 0.00 0.00 0.00 0.00 0.00 0.00 0.01 0.01 0.02 0.03 0.05 0.01 0.02 0.04 0.01 0.00 0.00 0.00 0.00 0.00 0.00 0.00 0.00 0.00 0.00 0.00 0.00 0.00 0.00 0.00 0.00 0.01 0.03
0.00 0.01 0.07 0.12 0.08 0.07 0.08 0.16 0.15 0.15 0.04 0.00 0.00 0.00 0.00 0.00 0.00 0.00 0.01 0.02 0.03 0.03 0.01 0.02 0.01 0.00 0.00 0.00 0.00 0.00 0.00 0.00 0.00 0.00 0.00 0.00 0.00 0.00 0.00 0.01 0.04 0.07 0.09 0.11
0.00 0.01 0.03 0.02 0.01 0.05 0.04 0.03 0.01 0.00 0.00 0.00 0.00 0.00 0.00 0.00 0.00 0.01 0.03 0.03 0.02 0.01 0.00 0.00 0.00 0.00 0.00 0.00 0.00 0.00 0.00 0.00 0.00 0.00 0.00 0.00 0.00 0.01 0.03 0.06 0.07 0.07 0.05 0.05
0.00 0.00 0.00 0.00 0.00 0.00 0.00 0.00 0.00 0.00 0.00 0.00 0.00 0.01 0.01 0.02 0.01 0.01 0.01 0.02 0.02 0.00 0.00 0.00 0.00 0.00 0.00 0.00 0.00 0.00 0.00 0.00 0.00 0.00 0.00 0.01 0.02 0.04 0.07 0.11 0.12 0.08 0.02 0.00
0.00 0.00 0.00 0.00 0.00 0.00 0.00 0.00 0.00 0.00 0.00 0.00 0.00 0.01 0.01 0.02 0.03 0.02 0.02 0.01 0.00 0.00 0.00 0.00 0.00 0.00 0.00 0.00 0.00 0.00 0.00 0.00 0.00 0.01 0.01 0.02 0.02 0.03 0.03 0.03 0.02 0.01 0.00 0.00
0.00 0.00 0.00 0.00 0.00 0.00 0.00 0.00 0.00 0.00 0.00 0.00 0.00 0.00 0.01 0.01 0.02 0.01 0.00 0.01 0.00 0.00 0.00 0.00 0.00 0.00 0.00 0.00 0.00 0.00 0.01 0.01 0.01 0.00 0.00 0.00 0.00 0.00 0.00 0.00 0.00 0.00 0.00 0.00
0.00 0.00 0.00 0.00 0.00 0.00 0.00 0.00 0.00 0.00 0.00 0.00 0.00 0.00 0.00 0.01 0.01 0.01 0.00 0.00 0.00 0.00 0.00 0.00 0.00 0.00 0.00 0.00 0.01 0.04 0.02 0.00 0.01 0.01 0.00 0.00 0.00 0.00 0.00 0.00 0.00 0.00 0.00 0.00
0.00 0.00 0.00 0.00 0.00 0.00 0.00 0.00 0.00 0.00 0.00 0.00 0.00 0.00 0.00 0.00 0.00 0.00 0.00 0.00 0.00 0.00 0.00 0.00 0.00 0.00 0.00 0.00 0.04 0.07 0.07 0.00 0.00 0.00 0.00 0.00 0.00 0.00 0.00 0.00 0.00 0.00 0.00 0.00

GFSNW_prec_prec_231.txt.gz
QPF
0.24 0.20 0.07 0.03 0.00 0.00 0.02 0.03 0.02 0.03 0.03 0.03 0.00 0.00 0.00 0.00 0.00 0.00 0.00 0.00 0.00 0.00 0.00 0.00 0.00 0.00 0.00 0.00 0.00 0.00 0.00 0.00 0.00 0.00 0.00 0.00 0.00 0.00 0.00 0.00 0.00 0.00 0.00 0.00
0.55 0.32 0.27 0.10 0.00 0.00 0.02 0.03 0.05 0.09 0.03 0.01 0.00 0.00 0.00 0.00 0.00 0.00 0.00 0.00 0.00 0.00 0.00 0.00 0.00 0.00 0.00 0.00 0.00 0.00 0.00 0.00 0.00 0.00 0.00 0.00 0.00 0.00 0.00 0.00 0.00 0.00 0.00 0.00
0.55 0.63 0.42 0.25 0.04 0.01 0.02 0.04 0.05 0.16 0.08 0.00 0.00 0.00 0.00 0.00 0.00 0.00 0.00 0.00 0.00 0.00 0.00 0.00 0.00 0.00 0.00 0.00 0.00 0.00 0.00 0.00 0.00 0.00 0.00 0.00 0.00 0.00 0.00 0.00 0.00 0.00 0.00 0.00
0.30 0.75 0.68 0.37 0.15 0.06 0.07 0.06 0.03 0.03 0.04 0.01 0.00 0.00 0.00 0.00 0.00 0.00 0.00 0.00 0.00 0.00 0.00 0.00 0.00 0.00 0.00 0.00 0.00 0.00 0.00 0.00 0.00 0.00 0.00 0.00 0.00 0.00 0.00 0.00 0.00 0.00 0.00 0.00
0.21 0.51 0.79 0.71 0.37 0.27 0.25 0.11 0.03 0.01 0.00 0.01 0.01 0.00 0.00 0.00 0.00 0.00 0.00 0.00 0.00 0.00 0.00 0.00 0.00 0.00 0.00 0.00 0.00 0.00 0.00 0.00 0.00 0.00 0.00 0.00 0.00 0.00 0.00 0.00 0.00 0.00 0.00 0.00
0.13 0.27 0.51 0.63 0.63 0.74 0.72 0.43 0.13 0.04 0.02 0.02 0.02 0.00 0.00 0.00 0.00 0.00 0.00 0.00 0.00 0.00 0.00 0.00 0.00 0.00 0.02 0.00 0.00 0.00 0.00 0.00 0.00 0.00 0.00 0.00 0.00 0.00 0.00 0.00 0.00 0.00 0.00 0.00
0.09 0.17 0.28 0.39 0.67 0.94 0.83 0.60 0.31 0.18 0.09 0.05 0.01 0.00 0.00 0.00 0.00 0.00 0.00 0.00 0.00 0.00 0.00 0.00 0.02 0.04 0.04 0.01 0.00 0.00 0.00 0.00 0.01 0.03 0.03 0.04 0.00 0.00 0.00 0.00 0.00 0.00 0.00 0.00
0.07 0.11 0.16 0.24 0.38 0.55 0.52 0.47 0.33 0.25 0.16 0.07 0.05 0.04 0.02 0.02 0.02 0.01 0.01 0.00 0.00 0.00 0.01 0.13 0.17 0.10 0.07 0.03 0.00 0.00 0.00 0.00 0.05 0.05 0.05 0.02 0.00 0.00 0.00 0.00 0.00 0.00 0.00 0.00
0.05 0.03 0.06 0.12 0.22 0.27 0.24 0.27 0.29 0.28 0.17 0.10 0.04 0.04 0.06 0.10 0.10 0.09 0.03 0.01 0.02 0.05 0.13 0.34 0.34 0.14 0.04 0.01 0.00 0.00 0.00 0.00 0.06 0.19 0.08 0.02 0.00 0.00 0.00 0.00 0.00 0.00 0.00 0.00
0.04 0.01 0.01 0.02 0.10 0.12 0.11 0.13 0.14 0.17 0.16 0.11 0.06 0.08 0.06 0.09 0.11 0.12 0.07 0.05 0.09 0.18 0.29 0.30 0.23 0.10 0.02 0.00 0.00 0.00 0.00 0.00 0.04 0.14 0.10 0.02 0.00 0.00 0.00 0.00 0.00 0.00 0.00 0.00
0.01 0.01 0.00 0.00 0.01 0.04 0.05 0.09 0.10 0.15 0.18 0.15 0.08 0.11 0.10 0.07 0.06 0.08 0.05 0.04 0.11 0.11 0.26 0.32 0.20 0.08 0.04 0.01 0.00 0.00 0.00 0.00 0.00 0.01 0.03 0.03 0.00 0.00 0.00 0.00 0.00 0.00 0.00 0.00
0.01 0.01 0.00 0.00 0.00 0.01 0.03 0.03 0.05 0.10 0.15 0.15 0.08 0.10 0.11 0.10 0.10 0.09 0.09 0.06 0.04 0.06 0.08 0.09 0.08 0.09 0.05 0.01 0.00 0.00 0.01 0.00 0.00 0.00 0.01 0.00 0.00 0.00 0.00 0.00 0.00 0.00 0.00 0.00
0.01 0.01 0.00 0.00 0.01 0.01 0.03 0.01 0.02 0.02 0.04 0.03 0.03 0.02 0.02 0.06 0.07 0.08 0.12 0.18 0.15 0.14 0.14 0.16 0.19 0.19 0.12 0.03 0.00 0.01 0.00 0.00 0.01 0.01 0.00 0.00 0.00 0.00 0.00 0.00 0.00 0.00 0.00 0.00
0.00 0.00 0.00 0.01 0.01 0.01 0.03 0.01 0.01 0.01 0.01 0.01 0.01 0.00 0.00 0.00 0.01 0.02 0.03 0.07 0.11 0.15 0.19 0.23 0.21 0.22 0.24 0.19 0.13 0.08 0.03 0.03 0.03 0.06 0.07 0.03 0.02 0.01 0.01 0.02 0.01 0.00 0.00 0.00
0.00 0.00 0.00 0.00 0.01 0.03 0.03 0.01 0.00 0.00 0.00 0.01 0.01 0.00 0.00 0.00 0.00 0.00 0.00 0.01 0.03 0.03 0.07 0.14 0.16 0.10 0.09 0.08 0.07 0.04 0.01 0.03 0.04 0.09 0.10 0.10 0.07 0.03 0.03 0.02 0.01 0.01 0.01 0.01
0.00 0.00 0.00 0.00 0.00 0.04 0.04 0.08 0.06 0.01 0.02 0.02 0.01 0.00 0.00 0.00 0.00 0.00 0.01 0.02 0.02 0.01 0.02 0.03 0.03 0.02 0.03 0.09 0.04 0.00 0.00 0.00 0.00 0.03 0.09 0.12 0.08 0.04 0.04 0.04 0.03 0.02 0.02 0.01
0.00 0.00 0.00 0.00 0.02 0.02 0.03 0.04 0.04 0.02 0.02 0.03 0.02 0.01 0.00 0.00 0.00 0.01 0.01 0.03 0.02 0.00 0.01 0.01 0.01 0.01 0.03 0.09 0.04 0.00 0.00 0.00 0.00 0.02 0.03 0.01 0.00 0.00 0.00 0.00 0.00 0.00 0.00 0.00
0.00 0.01 0.03 0.05 0.10 0.07 0.06 0.02 0.00 0.00 0.00 0.01 0.02 0.01 0.00 0.00 0.00 0.00 0.01 0.02 0.00 0.00 0.00 0.01 0.01 0.02 0.03 0.05 0.00 0.00 0.00 0.00 0.00 0.00 0.00 0.00 0.00 0.00 0.00 0.00 0.00 0.00 0.00 0.00
0.02 0.02 0.02 0.06 0.04 0.09 0.09 0.06 0.03 0.01 0.01 0.01 0.01 0.01 0.01 0.00 0.00 0.00 0.00 0.00 0.01 0.01 0.01 0.01 0.02 0.02 0.03 0.00 0.00 0.00 0.00 0.00 0.00 0.00 0.00 0.00 0.00 0.00 0.00 0.00 0.00 0.00 0.00 0.00
0.01 0.01 0.03 0.11 0.08 0.09 0.08 0.14 0.12 0.08 0.03 0.01 0.00 0.00 0.00 0.00 0.00 0.00 0.01 0.01 0.01 0.02 0.01 0.01 0.02 0.00 0.00 0.00 0.00 0.00 0.00 0.00 0.00 0.00 0.00 0.00 0.00 0.00 0.00 0.00 0.00 0.00 0.00 0.00
0.03 0.04 0.08 0.17 0.09 0.08 0.12 0.17 0.14 0.11 0.06 0.01 0.00 0.01 0.01 0.00 0.00 0.00 0.01 0.02 0.03 0.03 0.02 0.02 0.02 0.00 0.00 0.00 0.00 0.00 0.00 0.00 0.00 0.00 0.00 0.00 0.00 0.00 0.00 0.00 0.00 0.00 0.00 0.01
0.01 0.01 0.03 0.05 0.06 0.06 0.06 0.06 0.02 0.01 0.01 0.00 0.00 0.00 0.01 0.00 0.01 0.01 0.01 0.01 0.02 0.02 0.01 0.01 0.00 0.00 0.00 0.00 0.00 0.00 0.00 0.00 0.00 0.00 0.00 0.00 0.00 0.00 0.00 0.00 0.01 0.03 0.05 0.06
0.00 0.00 0.00 0.01 0.00 0.00 0.01 0.01 0.00 0.00 0.00 0.00 0.00 0.00 0.00 0.00 0.01 0.02 0.01 0.01 0.02 0.01 0.01 0.00 0.00 0.00 0.00 0.00 0.00 0.00 0.00 0.00 0.00 0.00 0.00 0.00 0.00 0.01 0.02 0.04 0.08 0.09 0.04 0.01
0.00 0.00 0.00 0.00 0.00 0.00 0.00 0.00 0.00 0.00 0.00 0.00 0.00 0.01 0.01 0.01 0.01 0.02 0.02 0.02 0.01 0.01 0.01 0.00 0.00 0.00 0.00 0.00 0.00 0.00 0.00 0.00 0.00 0.01 0.00 0.00 0.00 0.01 0.03 0.07 0.07 0.05 0.01 0.00
0.00 0.00 0.00 0.00 0.00 0.00 0.00 0.00 0.00 0.00 0.00 0.00 0.00 0.01 0.01 0.01 0.03 0.01 0.02 0.01 0.01 0.00 0.00 0.02 0.00 0.00 0.00 0.00 0.00 0.00 0.00 0.01 0.00 0.00 0.01 0.01 0.00 0.00 0.00 0.00 0.00 0.00 0.00 0.00
0.00 0.00 0.00 0.00 0.00 0.00 0.00 0.00 0.00 0.00 0.00 0.00 0.01 0.01 0.01 0.01 0.02 0.01 0.01 0.00 0.00 0.00 0.00 0.00 0.00 0.00 0.00 0.00 0.00 0.01 0.01 0.01 0.00 0.00 0.00 0.00 0.00 0.00 0.00 0.00 0.00 0.00 0.00 0.00
0.00 0.00 0.00 0.00 0.00 0.00 0.00 0.00 0.00 0.00 0.00 0.00 0.00 0.00 0.01 0.01 0.01 0.00 0.00 0.00 0.01 0.01 0.00 0.00 0.00 0.00 0.00 0.00 0.01 0.05 0.06 0.00 0.00 0.00 0.00 0.00 0.00 0.00 0.00 0.00 0.00 0.00 0.00 0.00

GFSNW_prec_prec_234.txt.gz
QPF
0.13 0.13 0.10 0.15 0.34 0.40 0.17 0.04 0.02 0.02 0.06 0.06 0.01 0.00 0.00 0.00 0.00 0.00 0.00 0.00 0.00 0.00 0.00 0.00 0.00 0.00 0.00 0.00 0.00 0.00 0.00 0.00 0.00 0.00 0.00 0.00 0.00 0.00 0.00 0.00 0.00 0.00 0.00 0.00
0.06 0.12 0.13 0.16 0.29 0.49 0.32 0.02 0.04 0.12 0.05 0.01 0.00 0.00 0.00 0.00 0.00 0.00 0.00 0.00 0.00 0.00 0.00 0.00 0.00 0.00 0.00 0.00 0.00 0.00 0.00 0.00 0.00 0.00 0.00 0.00 0.00 0.00 0.00 0.00 0.00 0.00 0.00 0.00
0.04 0.07 0.17 0.19 0.24 0.39 0.38 0.05 0.07 0.17 0.12 0.00 0.00 0.00 0.00 0.00 0.00 0.00 0.00 0.00 0.00 0.00 0.00 0.00 0.00 0.00 0.00 0.00 0.00 0.00 0.00 0.00 0.00 0.00 0.00 0.00 0.00 0.00 0.00 0.00 0.00 0.00 0.00 0.00
0.18 0.07 0.09 0.28 0.27 0.28 0.34 0.09 0.02 0.04 0.02 0.00 0.00 0.00 0.00 0.00 0.00 0.00 0.00 0.00 0.00 0.00 0.00 0.00 0.00 0.00 0.00 0.00 0.00 0.00 0.00 0.00 0.00 0.00 0.00 0.00 0.00 0.00 0.00 0.00 0.00 0.00 0.00 0.00
0.38 0.19 0.09 0.18 0.34 0.31 0.32 0.08 0.01 0.01 0.00 0.00 0.00 0.00 0.00 0.00 0.00 0.00 0.00 0.00 0.00 0.00 0.00 0.00 0.00 0.00 0.00 0.00 0.00 0.00 0.00 0.00 0.00 0.00 0.00 0.00 0.00 0.00 0.00 0.00 0.00 0.00 0.00 0.00
0.42 0.36 0.26 0.18 0.27 0.44 0.43 0.08 0.03 0.02 0.01 0.01 0.01 0.00 0.00 0.00 0.00 0.00 0.00 0.00 0.00 0.00 0.00 0.00 0.00 0.00 0.00 0.00 0.00 0.00 0.00 0.00 0.00 0.00 0.00 0.00 0.00 0.00 0.00 0.00 0.00 0.00 0.00 0.00
0.38 0.48 0.41 0.39 0.42 0.57 0.45 0.10 0.04 0.06 0.02 0.02 0.00 0.00 0.00 0.00 0.00 0.00 0.00 0.00 0.00 0.00 0.00 0.00 0.00 0.00 0.00 0.00 0.00 0.00 0.00 0.00 0.01 0.00 0.01 0.01 0.00 0.00 0.00 0.00 0.00 0.00 0.00 0.00
0.35 0.46 0.48 0.56 0.63 0.81 0.54 0.18 0.05 0.04 0.02 0.01 0.01 0.00 0.00 0.00 0.00 0.00 0.00 0.00 0.00 0.00 0.00 0.00 0.01 0.01 0.00 0.00 0.00 0.00 0.00 0.01 0.04 0.05 0.04 0.01 0.00 0.00 0.00 0.00 0.00 0.00 0.00 0.00
0.26 0.38 0.45 0.46 0.60 0.80 0.60 0.31 0.08 0.03 0.02 0.01 0.01 0.03 0.02 0.01 0.01 0.00 0.00 0.00 0.00 0.00 0.01 0.05 0.09 0.06 0.03 0.01 0.00 0.00 0.00 0.00 0.08 0.22 0.12 0.02 0.00 0.00 0.00 0.00 0.00 0.00 0.00 0.00
0.23 0.26 0.36 0.39 0.41 0.45 0.36 0.27 0.11 0.05 0.05 0.02 0.00 0.01 0.02 0.02 0.03 0.01 0.01 0.01 0.02 0.05 0.09 0.18 0.19 0.09 0.03 0.01 0.00 0.00 0.00 0.01 0.07 0.15 0.11 0.02 0.00 0.00 0.00 0.00 0.00 0.00 0.00 0.00
0.22 0.23 0.20 0.24 0.28 0.29 0.27 0.24 0.13 0.08 0.09 0.09 0.05 0.04 0.05 0.05 0.04 0.06 0.05 0.09 0.18 0.22 0.27 0.32 0.31 0.16 0.06 0.01 0.00 0.01 0.02 0.01 0.01 0.02 0.06 0.05 0.00 0.00 0.00 0.00 0.00 0.00 0.00 0.00
0.14 0.19 0.16 0.13 0.16 0.21 0.22 0.25 0.17 0.13 0.15 0.17 0.11 0.10 0.11 0.09 0.11 0.12 0.15 0.16 0.23 0.26 0.30 0.34 0.22 0.14 0.07 0.03 0.01 0.01 0.07 0.09 0.02 0.00 0.01 0.00 0.00 0.00 0.00 0.00 0.00 0.00 0.00 0.00
0.07 0.09 0.09 0.06 0.08 0.12 0.15 0.18 0.17 0.14 0.19 0.19 0.13 0.08 0.09 0.11 0.11 0.13 0.24 0.25 0.26 0.30 0.30 0.27 0.18 0.14 0.09 0.04 0.01 0.00 0.00 0.01 0.02 0.02 0.01 0.00 0.00 0.00 0.00 0.00 0.00 0.00 0.00 0.00
0.04 0.04 0.03 0.02 0.03 0.04 0.06 0.09 0.08 0.08 0.08 0.10 0.08 0.02 0.01 0.01 0.03 0.07 0.13 0.21 0.23 0.29 0.32 0.32 0.28 0.20 0.12 0.08 0.03 0.01 0.00 0.00 0.00 0.01 0.01 0.01 0.01 0.02 0.03 0.01 0.01 0.01 0.01 0.00
0.02 0.02 0.01 0.01 0.02 0.02 0.01 0.02 0.01 0.01 0.04 0.07 0.03 0.00 0.00 0.00 0.00 0.01 0.04 0.08 0.12 0.13 0.16 0.18 0.15 0.12 0.09 0.07 0.03 0.01 0.00 0.00 0.01 0.07 0.12 0.14 0.08 0.02 0.02 0.03 0.04 0.04 0.04 0.04
0.00 0.00 0.01 0.02 0.02 0.01 0.00 0.03 0.03 0.01 0.01 0.00 0.01 0.00 0.00 0.00 0.00 0.01 0.02 0.02 0.04 0.04 0.04 0.05 0.06 0.04 0.05 0.09 0.03 0.00 0.00 0.00 0.00 0.00 0.01 0.01 0.00 0.00 0.00 0.00 0.00 0.00 0.01 0.01
0.00 0.00 0.01 0.02 0.01 0.00 0.00 0.00 0.01 0.00 0.01 0.01 0.01 0.01 0.00 0.00 0.00 0.01 0.01 0.02 0.02 0.00 0.00 0.00 0.01 0.01 0.02 0.04 0.01 0.00 0.00 0.00 0.00 0.00 0.01 0.00 0.00 0.00 0.00 0.00 0.00 0.00 0.00 0.00
0.00 0.01 0.02 0.03 0.02 0.01 0.00 0.00 0.00 0.00 0.01 0.01 0.01 0.02 0.00 0.00 0.00 0.00 0.01 0.02 0.00 0.00 0.00 0.01 0.00 0.00 0.01 0.01 0.00 0.00 0.00 0.00 0.00 0.00 0.00 0.00 0.00 0.00 0.00 0.00 0.00 0.00 0.00 0.00
0.01 0.02 0.02 0.04 0.03 0.01 0.01 0.01 0.00 0.01 0.00 0.00 0.00 0.01 0.01 0.00 0.00 0.01 0.00 0.00 0.00 0.01 0.01 0.00 0.00 0.00 0.01 0.00 0.00 0.00 0.00 0.00 0.00 0.00 0.00 0.00 0.00 0.00 0.00 0.00 0.00 0.00 0.00 0.00
0.01 0.01 0.01 0.08 0.05 0.01 0.01 0.04 0.04 0.03 0.03 0.01 0.00 0.01 0.01 0.00 0.00 0.01 0.00 0.00 0.00 0.01 0.00 0.00 0.01 0.00 0.00 0.00 0.00 0.00 0.00 0.00 0.00 0.00 0.00 0.00 0.00 0.00 0.00 0.00 0.00 0.00 0.00 0.00
0.01 0.00 0.06 0.13 0.03 0.02 0.04 0.08 0.09 0.05 0.01 0.00 0.00 0.01 0.01 0.00 0.00 0.00 0.01 0.01 0.01 0.01 0.01 0.02 0.01 0.00 0.00 0.00 0.00 0.00 0.00 0.00 0.00 0.00 0.00 0.00 0.00 0.00 0.00 0.00 0.00 0.00 0.00 0.00
0.01 0.00 0.05 0.06 0.01 0.03 0.05 0.05 0.02 0.01 0.02 0.00 0.00 0.03 0.01 0.00 0.01 0.02 0.02 0.01 0.00 0.00 0.02 0.01 0.00 0.00 0.00 0.00 0.00 0.00 0.00 0.00 0.00 0.00 0.00 0.00 0.00 0.00 0.00 0.00 0.00 0.00 0.01 0.03
0.01 0.00 0.03 0.03 0.02 0.01 0.02 0.02 0.00 0.01 0.01 0.00 0.00 0.00 0.00 0.00 0.01 0.02 0.02 0.00 0.01 0.01 0.01 0.00 0.00 0.01 0.00 0.00 0.00 0.00 0.00 0.00 0.00 0.00 0.00 0.00 0.00 0.00 0.01 0.01 0.02 0.02 0.03 0.03
0.03 0.00 0.00 0.01 0.00 0.02 0.03 0.04 0.05 0.03 0.00 0.00 0.00 0.00 0.00 0.00 0.01 0.02 0.01 0.01 0.02 0.01 0.00 0.00 0.01 0.01 0.00 0.00 0.00 0.00 0.00 0.00 0.00 0.00 0.00 0.00 0.00 0.01 0.03 0.03 0.04 0.03 0.01 0.00
0.00 0.00 0.01 0.01 0.01 0.02 0.01 0.01 0.01 0.00 0.00 0.00 0.00 0.00 0.01 0.01 0.02 0.01 0.02 0.01 0.01 0.00 0.00 0.05 0.02 0.00 0.00 0.00 0.00 0.00 0.00 0.00 0.00 0.00 0.00 0.00 0.00 0.00 0.01 0.01 0.00 0.00 0.00 0.00
0.00 0.00 0.01 0.01 0.00 0.00 0.00 0.00 0.00 0.00 0.00 0.01 0.02 0.01 0.02 0.01 0.01 0.01 0.00 0.00 0.00 0.01 0.04 0.02 0.00 0.00 0.00 0.00 0.00 0.00 0.00 0.00 0.00 0.00 0.00 0.00 0.00 0.00 0.00 0.00 0.00 0.00 0.00 0.00
0.00 0.00 0.00 0.00 0.00 0.00 0.00 0.00 0.00 0.00 0.01 0.01 0.02 0.01 0.01 0.02 0.02 0.00 0.00 0.00 0.02 0.04 0.00 0.00 0.00 0.00 0.00 0.00 0.00 0.00 0.00 0.00 0.00 0.00 0.00 0.00 0.00 0.00 0.00 0.00 0.00 0.00 0.00 0.00

GFSNW_prec_prec_237.txt.gz
QPF
0.00 0.00 0.00 0.01 0.04 0.20 0.39 0.75 0.77 0.22 0.05 0.10 0.06 0.01 0.00 0.00 0.00 0.00 0.00 0.00 0.00 0.00 0.00 0.00 0.00 0.00 0.00 0.00 0.00 0.00 0.00 0.00 0.00 0.00 0.00 0.00 0.00 0.00 0.00 0.00 0.00 0.00 0.00 0.00
0.01 0.01 0.01 0.03 0.06 0.24 0.62 0.79 0.60 0.19 0.05 0.02 0.01 0.00 0.00 0.00 0.00 0.00 0.00 0.00 0.00 0.00 0.00 0.00 0.00 0.00 0.00 0.00 0.00 0.00 0.00 0.00 0.00 0.00 0.00 0.00 0.00 0.00 0.00 0.00 0.00 0.00 0.00 0.00
0.01 0.02 0.05 0.07 0.10 0.11 0.63 0.81 0.59 0.38 0.16 0.02 0.00 0.00 0.00 0.00 0.00 0.00 0.00 0.00 0.00 0.00 0.00 0.00 0.00 0.00 0.00 0.00 0.00 0.00 0.00 0.00 0.00 0.00 0.00 0.00 0.00 0.00 0.00 0.00 0.00 0.00 0.00 0.00
0.02 0.04 0.06 0.12 0.16 0.15 0.58 0.96 0.63 0.38 0.16 0.04 0.00 0.00 0.00 0.00 0.00 0.00 0.00 0.00 0.00 0.00 0.00 0.00 0.00 0.00 0.00 0.00 0.00 0.00 0.00 0.00 0.00 0.00 0.00 0.00 0.00 0.00 0.00 0.00 0.00 0.00 0.00 0.00
0.05 0.05 0.06 0.13 0.15 0.27 0.69 0.84 0.53 0.28 0.06 0.02 0.00 0.00 0.00 0.00 0.00 0.00 0.00 0.00 0.00 0.00 0.00 0.00 0.00 0.00 0.00 0.00 0.00 0.00 0.00 0.00 0.00 0.00 0.00 0.00 0.00 0.00 0.00 0.00 0.00 0.00 0.00 0.00
0.10 0.06 0.04 0.06 0.13 0.33 0.88 0.64 0.18 0.14 0.03 0.00 0.00 0.00 0.00 0.00 0.00 0.00 0.00 0.00 0.00 0.00 0.00 0.00 0.00 0.00 0.00 0.00 0.00 0.00 0.00 0.00 0.00 0.00 0.00 0.00 0.00 0.00 0.00 0.00 0.00 0.00 0.00 0.00
0.17 0.10 0.04 0.02 0.09 0.20 0.64 0.43 0.09 0.06 0.04 0.01 0.00 0.00 0.00 0.00 0.00 0.00 0.00 0.00 0.00 0.00 0.00 0.00 0.00 0.00 0.00 0.00 0.00 0.00 0.00 0.00 0.00 0.00 0.00 0.00 0.00 0.00 0.00 0.00 0.00 0.00 0.00 0.00
0.22 0.16 0.12 0.02 0.02 0.08 0.36 0.13 0.03 0.03 0.04 0.02 0.00 0.00 0.00 0.00 0.00 0.00 0.00 0.00 0.00 0.00 0.00 0.00 0.00 0.00 0.00 0.00 0.00 0.00 0.00 0.00 0.00 0.00 0.00 0.00 0.00 0.00 0.00 0.00 0.00 0.00 0.00 0.00
0.26 0.30 0.30 0.16 0.05 0.10 0.33 0.12 0.03 0.02 0.02 0.01 0.00 0.00 0.00 0.00 0.00 0.00 0.00 0.00 0.00 0.00 0.01 0.01 0.01 0.00 0.00 0.00 0.00 0.00 0.00 0.00 0.01 0.00 0.00 0.00 0.00 0.00 0.00 0.00 0.00 0.00 0.00 0.00
0.30 0.37 0.42 0.34 0.23 0.23 0.32 0.22 0.08 0.05 0.03 0.01 0.00 0.01 0.00 0.00 0.00 0.00 0.00 0.00 0.02 0.06 0.04 0.03 0.03 0.00 0.00 0.00 0.00 0.00 0.00 0.00 0.00 0.00 0.01 0.00 0.00 0.00 0.00 0.00 0.00 0.00 0.00 0.00
0.29 0.33 0.38 0.47 0.40 0.31 0.26 0.22 0.09 0.06 0.06 0.03 0.01 0.00 0.00 0.00 0.01 0.00 0.00 0.05 0.06 0.08 0.08 0.07 0.08 0.05 0.01 0.00 0.00 0.00 0.01 0.01 0.01 0.01 0.05 0.04 0.00 0.00 0.00 0.00 0.00 0.00 0.00 0.00
0.19 0.26 0.24 0.42 0.47 0.42 0.25 0.15 0.12 0.05 0.05 0.05 0.03 0.03 0.01 0.00 0.00 0.01 0.02 0.03 0.02 0.04 0.07 0.08 0.07 0.05 0.02 0.00 0.00 0.01 0.07 0.07 0.02 0.01 0.02 0.00 0.00 0.01 0.01 0.00 0.00 0.00 0.00 0.00
0.12 0.19 0.22 0.27 0.31 0.33 0.23 0.17 0.09 0.10 0.18 0.17 0.12 0.09 0.05 0.03 0.02 0.02 0.06 0.12 0.08 0.11 0.14 0.17 0.21 0.18 0.11 0.06 0.03 0.01 0.03 0.06 0.11 0.11 0.05 0.01 0.01 0.01 0.00 0.00 0.00 0.00 0.00 0.00
0.08 0.12 0.14 0.21 0.24 0.27 0.26 0.21 0.17 0.15 0.23 0.25 0.27 0.13 0.08 0.06 0.06 0.05 0.06 0.10 0.12 0.17 0.22 0.27 0.37 0.38 0.30 0.24 0.16 0.09 0.04 0.06 0.11 0.12 0.08 0.04 0.02 0.00 0.00 0.00 0.00 0.00 0.00 0.01
0.06 0.07 0.09 0.12 0.15 0.16 0.22 0.27 0.24 0.20 0.19 0.26 0.20 0.13 0.10 0.07 0.07 0.07 0.10 0.14 0.19 0.21 0.22 0.27 0.27 0.24 0.20 0.16 0.12 0.04 0.02 0.05 0.10 0.12 0.04 0.03 0.01 0.00 0.00 0.00 0.00 0.00 0.00 0.00
0.03 0.04 0.08 0.07 0.06 0.05 0.08 0.14 0.16 0.15 0.12 0.12 0.18 0.16 0.09 0.06 0.07 0.08 0.08 0.09 0.09 0.10 0.10 0.09 0.07 0.05 0.06 0.08 0.03 0.00 0.00 0.00 0.00 0.00 0.00 0.00 0.00 0.00 0.00 0.00 0.00 0.00 0.00 0.00
0.02 0.04 0.06 0.03 0.02 0.01 0.01 0.03 0.04 0.04 0.05 0.07 0.10 0.09 0.04 0.03 0.04 0.04 0.05 0.04 0.02 0.02 0.02 0.01 0.01 0.01 0.01 0.01 0.00 0.00 0.00 0.00 0.00 0.00 0.00 0.00 0.00 0.00 0.00 0.00 0.00 0.00 0.00 0.00
0.02 0.03 0.03 0.02 0.01 0.00 0.00 0.00 0.00 0.00 0.00 0.01 0.03 0.05 0.03 0.01 0.01 0.01 0.02 0.01 0.00 0.00 0.00 0.00 0.00 0.00 0.00 0.00 0.00 0.00 0.00 0.00 0.00 0.00 0.00 0.00 0.00 0.00 0.00 0.00 0.00 0.00 0.00 0.00
0.01 0.01 0.01 0.01 0.00 0.00 0.01 0.00 0.00 0.00 0.00 0.00 0.00 0.01 0.01 0.00 0.00 0.00 0.00 0.00 0.00 0.00 0.00 0.00 0.00 0.00 0.00 0.00 0.00 0.00 0.00 0.00 0.00 0.00 0.00 0.00 0.00 0.00 0.00 0.00 0.00 0.00 0.00 0.00
0.01 0.01 0.02 0.04 0.01 0.00 0.00 0.01 0.00 0.00 0.00 0.00 0.00 0.00 0.00 0.00 0.00 0.00 0.00 0.00 0.00 0.00 0.00 0.00 0.00 0.00 0.00 0.00 0.00 0.00 0.00 0.00 0.00 0.00 0.00 0.00 0.00 0.00 0.00 0.00 0.00 0.00 0.00 0.00
0.01 0.01 0.07 0.07 0.02 0.00 0.00 0.00 0.00 0.00 0.00 0.00 0.01 0.00 0.00 0.00 0.00 0.00 0.00 0.00 0.00 0.00 0.00 0.00 0.00 0.00 0.00 0.00 0.00 0.00 0.00 0.00 0.00 0.00 0.00 0.00 0.00 0.00 0.00 0.00 0.00 0.00 0.00 0.00
0.00 0.01 0.05 0.01 0.00 0.00 0.00 0.00 0.00 0.00 0.00 0.00 0.01 0.01 0.00 0.00 0.00 0.00 0.00 0.00 0.00 0.00 0.00 0.00 0.00 0.00 0.00 0.00 0.00 0.00 0.00 0.00 0.00 0.00 0.00 0.00 0.00 0.00 0.00 0.00 0.00 0.00 0.00 0.00
0.01 0.00 0.02 0.00 0.00 0.00 0.01 0.00 0.00 0.00 0.00 0.00 0.00 0.00 0.00 0.00 0.00 0.00 0.00 0.00 0.00 0.00 0.00 0.00 0.00 0.00 0.00 0.00 0.00 0.00 0.00 0.00 0.00 0.00 0.00 0.00 0.00 0.00 0.00 0.00 0.00 0.00 0.00 0.00
0.02 0.00 0.00 0.00 0.00 0.02 0.05 0.03 0.02 0.01 0.00 0.00 0.00 0.00 0.00 0.00 0.00 0.00 0.00 0.00 0.00 0.00 0.00 0.00 0.00 0.00 0.00 0.00 0.00 0.00 0.00 0.00 0.00 0.00 0.00 0.00 0.00 0.00 0.00 0.00 0.00 0.00 0.00 0.00
0.00 0.01 0.01 0.01 0.02 0.02 0.02 0.03 0.01 0.00 0.01 0.00 0.00 0.00 0.00 0.00 0.00 0.00 0.00 0.00 0.00 0.00 0.00 0.01 0.00 0.00 0.00 0.00 0.00 0.00 0.00 0.00 0.00 0.00 0.00 0.00 0.00 0.00 0.00 0.00 0.00 0.00 0.00 0.00
0.00 0.00 0.00 0.01 0.00 0.00 0.00 0.00 0.00 0.01 0.00 0.00 0.00 0.00 0.00 0.00 0.00 0.00 0.00 0.00 0.00 0.00 0.01 0.00 0.00 0.00 0.00 0.00 0.00 0.00 0.00 0.00 0.00 0.00 0.00 0.00 0.00 0.00 0.00 0.00 0.00 0.00 0.00 0.00
0.00 0.00 0.00 0.01 0.00 0.00 0.00 0.00 0.00 0.00 0.00 0.00 0.00 0.00 0.00 0.00 0.00 0.00 0.00 0.00 0.00 0.01 0.00 0.00 0.00 0.00 0.00 0.00 0.00 0.00 0.00 0.00 0.00 0.00 0.00 0.00 0.00 0.00 0.00 0.00 0.00 0.00 0.00 0.00

GFSNW_prec_prec_240.txt.gz
QPF
0.00 0.00 0.00 0.00 0.00 0.01 0.04 0.05 0.12 0.17 0.15 0.70 0.63 0.27 0.03 0.00 0.00 0.00 0.00 0.00 0.00 0.00 0.00 0.00 0.00 0.00 0.00 0.00 0.00 0.00 0.00 0.00 0.00 0.00 0.00 0.00 0.00 0.00 0.00 0.00 0.00 0.00 0.00 0.00
0.00 0.00 0.00 0.00 0.00 0.02 0.04 0.06 0.10 0.19 0.25 0.70 0.66 0.23 0.00 0.00 0.00 0.00 0.00 0.00 0.00 0.00 0.00 0.00 0.00 0.00 0.00 0.00 0.00 0.00 0.00 0.00 0.00 0.00 0.00 0.00 0.00 0.00 0.00 0.00 0.00 0.00 0.00 0.00
0.01 0.01 0.01 0.01 0.00 0.01 0.07 0.11 0.20 0.34 0.47 0.50 0.35 0.10 0.00 0.00 0.00 0.00 0.00 0.00 0.00 0.00 0.00 0.00 0.00 0.00 0.00 0.00 0.00 0.00 0.00 0.00 0.00 0.00 0.00 0.00 0.00 0.00 0.00 0.00 0.00 0.00 0.00 0.00
0.01 0.01 0.01 0.01 0.01 0.01 0.11 0.20 0.32 0.30 0.57 0.54 0.31 0.03 0.00 0.00 0.00 0.00 0.00 0.00 0.00 0.00 0.00 0.00 0.00 0.00 0.00 0.00 0.00 0.00 0.00 0.00 0.00 0.00 0.00 0.00 0.00 0.00 0.00 0.00 0.00 0.00 0.00 0.00
0.03 0.03 0.02 0.02 0.02 0.03 0.17 0.29 0.31 0.31 0.27 0.29 0.08 0.02 0.00 0.00 0.00 0.00 0.00 0.00 0.00 0.00 0.00 0.00 0.00 0.00 0.00 0.00 0.00 0.00 0.00 0.00 0.00 0.00 0.00 0.00 0.00 0.00 0.00 0.00 0.00 0.00 0.00 0.00
0.04 0.04 0.04 0.03 0.03 0.06 0.20 0.27 0.21 0.33 0.23 0.09 0.02 0.00 0.00 0.00 0.00 0.00 0.00 0.00 0.00 0.00 0.00 0.00 0.00 0.00 0.00 0.00 0.00 0.00 0.00 0.00 0.00 0.00 0.00 0.00 0.00 0.00 0.00 0.00 0.00 0.00 0.00 0.00
0.10 0.07 0.05 0.05 0.05 0.10 0.20 0.21 0.19 0.26 0.31 0.04 0.01 0.00 0.00 0.00 0.00 0.00 0.00 0.00 0.00 0.00 0.00 0.00 0.00 0.00 0.00 0.00 0.00 0.00 0.00 0.00 0.00 0.00 0.00 0.00 0.00 0.00 0.00 0.00 0.00 0.00 0.00 0.00
0.09 0.13 0.13 0.08 0.07 0.08 0.16 0.19 0.17 0.17 0.23 0.07 0.00 0.00 0.00 0.00 0.00 0.00 0.00 0.00 0.00 0.00 0.01 0.01 0.01 0.00 0.00 0.00 0.00 0.00 0.00 0.00 0.00 0.00 0.00 0.00 0.00 0.00 0.00 0.00 0.00 0.00 0.00 0.00
0.10 0.11 0.11 0.13 0.08 0.04 0.18 0.20 0.10 0.12 0.20 0.09 0.00 0.00 0.00 0.00 0.00 0.00 0.00 0.00 0.00 0.00 0.00 0.01 0.00 0.00 0.00 0.00 0.00 0.00 0.00 0.00 0.00 0.00 0.00 0.00 0.00 0.00 0.00 0.00 0.00 0.00 0.00 0.00
0.17 0.17 0.17 0.14 0.08 0.02 0.18 0.24 0.10 0.12 0.20 0.07 0.00 0.00 0.00 0.00 0.00 0.00 0.00 0.00 0.00 0.00 0.01 0.01 0.00 0.00 0.00 0.00 0.00 0.00 0.00 0.00 0.00 0.00 0.00 0.00 0.00 0.00 0.00 0.00 0.00 0.00 0.00 0.00
0.23 0.25 0.29 0.21 0.06 0.01 0.13 0.29 0.15 0.16 0.18 0.08 0.01 0.00 0.00 0.00 0.00 0.00 0.00 0.01 0.04 0.03 0.04 0.05 0.04 0.00 0.00 0.00 0.00 0.00 0.00 0.00 0.00 0.00 0.00 0.00 0.00 0.00 0.00 0.00 0.00 0.00 0.00 0.00
0.26 0.37 0.40 0.31 0.11 0.05 0.07 0.29 0.23 0.19 0.16 0.08 0.05 0.01 0.00 0.00 0.00 0.00 0.00 0.00 0.01 0.02 0.04 0.05 0.02 0.01 0.00 0.00 0.00 0.00 0.00 0.00 0.00 0.00 0.00 0.00 0.00 0.00 0.00 0.00 0.00 0.00 0.00 0.00
0.24 0.44 0.42 0.20 0.16 0.11 0.06 0.24 0.23 0.28 0.19 0.07 0.07 0.07 0.03 0.01 0.00 0.00 0.01 0.01 0.01 0.01 0.02 0.05 0.06 0.05 0.02 0.00 0.00 0.00 0.00 0.00 0.00 0.01 0.00 0.00 0.00 0.00 0.00 0.01 0.01 0.01 0.01 0.01
0.20 0.36 0.33 0.23 0.17 0.11 0.06 0.20 0.23 0.15 0.09 0.12 0.19 0.12 0.10 0.06 0.04 0.01 0.01 0.01 0.02 0.03 0.05 0.08 0.18 0.13 0.04 0.01 0.00 0.00 0.01 0.02 0.03 0.03 0.02 0.02 0.03 0.04 0.10 0.10 0.07 0.04 0.02 0.01
0.15 0.23 0.29 0.29 0.20 0.13 0.10 0.16 0.23 0.11 0.03 0.14 0.21 0.15 0.14 0.09 0.06 0.09 0.06 0.08 0.09 0.10 0.16 0.29 0.33 0.19 0.08 0.05 0.03 0.01 0.03 0.10 0.14 0.13 0.08 0.10 0.09 0.08 0.08 0.06 0.03 0.01 0.00 0.00
0.11 0.16 0.24 0.25 0.19 0.14 0.12 0.16 0.22 0.16 0.05 0.09 0.17 0.18 0.15 0.12 0.07 0.08 0.10 0.15 0.20 0.20 0.20 0.23 0.22 0.18 0.13 0.11 0.05 0.00 0.02 0.05 0.07 0.07 0.07 0.07 0.03 0.01 0.01 0.00 0.00 0.00 0.00 0.00
0.06 0.13 0.14 0.13 0.12 0.11 0.13 0.17 0.20 0.18 0.10 0.08 0.13 0.13 0.12 0.11 0.08 0.09 0.11 0.09 0.10 0.11 0.13 0.12 0.10 0.09 0.07 0.06 0.02 0.01 0.00 0.00 0.00 0.00 0.00 0.00 0.00 0.00 0.00 0.00 0.00 0.00 0.00 0.00
0.03 0.06 0.06 0.04 0.05 0.10 0.12 0.11 0.07 0.05 0.07 0.09 0.12 0.13 0.14 0.09 0.07 0.07 0.07 0.05 0.03 0.02 0.02 0.02 0.02 0.02 0.01 0.00 0.00 0.00 0.00 0.00 0.00 0.00 0.00 0.00 0.00 0.00 0.00 0.00 0.00 0.00 0.00 0.00
0.00 0.00 0.00 0.00 0.02 0.05 0.07 0.04 0.01 0.01 0.01 0.03 0.03 0.05 0.06 0.03 0.04 0.04 0.02 0.01 0.01 0.01 0.00 0.00 0.00 0.00 0.00 0.00 0.00 0.00 0.00 0.00 0.00 0.00 0.00 0.00 0.00 0.00 0.00 0.00 0.00 0.00 0.00 0.00
0.00 0.00 0.00 0.00 0.01 0.00 0.00 0.00 0.00 0.00 0.00 0.01 0.01 0.01 0.02 0.01 0.01 0.00 0.00 0.00 0.00 0.00 0.00 0.00 0.00 0.00 0.00 0.00 0.00 0.00 0.00 0.00 0.00 0.00 0.00 0.00 0.00 0.00 0.00 0.00 0.00 0.00 0.00 0.00
0.00 0.00 0.02 0.01 0.00 0.00 0.00 0.00 0.00 0.00 0.00 0.00 0.00 0.00 0.00 0.00 0.00 0.00 0.00 0.00 0.00 0.00 0.00 0.00 0.00 0.00 0.00 0.00 0.00 0.00 0.00 0.00 0.00 0.00 0.00 0.00 0.00 0.00 0.00 0.00 0.00 0.00 0.00 0.00
0.00 0.00 0.02 0.00 0.00 0.00 0.00 0.00 0.00 0.00 0.00 0.00 0.00 0.00 0.00 0.00 0.00 0.00 0.00 0.00 0.00 0.00 0.00 0.00 0.00 0.00 0.00 0.00 0.00 0.00 0.00 0.00 0.00 0.00 0.00 0.00 0.00 0.00 0.00 0.00 0.00 0.00 0.00 0.00
0.00 0.00 0.00 0.00 0.00 0.00 0.00 0.00 0.00 0.00 0.00 0.00 0.00 0.00 0.00 0.00 0.00 0.00 0.00 0.00 0.00 0.00 0.00 0.00 0.00 0.00 0.00 0.00 0.00 0.00 0.00 0.00 0.00 0.00 0.00 0.00 0.00 0.00 0.00 0.00 0.00 0.00 0.00 0.00
0.00 0.00 0.00 0.00 0.00 0.00 0.00 0.00 0.00 0.00 0.00 0.00 0.00 0.00 0.00 0.00 0.00 0.00 0.00 0.00 0.00 0.00 0.00 0.00 0.00 0.00 0.00 0.00 0.00 0.00 0.00 0.00 0.00 0.00 0.00 0.00 0.00 0.00 0.00 0.00 0.00 0.00 0.00 0.00
0.00 0.00 0.00 0.00 0.01 0.01 0.01 0.03 0.02 0.01 0.01 0.00 0.00 0.00 0.00 0.00 0.00 0.00 0.00 0.00 0.00 0.00 0.00 0.00 0.00 0.00 0.00 0.00 0.00 0.00 0.00 0.00 0.00 0.00 0.00 0.00 0.00 0.00 0.00 0.00 0.00 0.00 0.00 0.00
0.00 0.00 0.00 0.00 0.00 0.00 0.00 0.00 0.02 0.03 0.02 0.00 0.00 0.00 0.00 0.00 0.00 0.00 0.00 0.00 0.00 0.00 0.00 0.00 0.00 0.00 0.00 0.00 0.00 0.00 0.00 0.00 0.00 0.00 0.00 0.00 0.00 0.00 0.00 0.00 0.00 0.00 0.00 0.00
0.00 0.00 0.00 0.00 0.00 0.00 0.00 0.00 0.00 0.00 0.00 0.00 0.00 0.00 0.00 0.00 0.00 0.00 0.00 0.00 0.00 0.00 0.00 0.00 0.00 0.00 0.00 0.00 0.00 0.00 0.00 0.00 0.00 0.00 0.00 0.00 0.00 0.00 0.00 0.00 0.00 0.00 0.00 0.00